TimeCDT,TemperatureF,Dew PointF,Humidity,Sea Level PressureIn,VisibilityMPH,Wind Direction,Wind SpeedMPH,Gust SpeedMPH,PrecipitationIn,Events,Conditions,WindDirDegrees,DateUTC
12:15 AM,60.8,51.8,72,29.87,10.0,South,9.2,-,N/A,,Clear,170,2013-04-30 05:15:00
12:35 AM,60.8,51.8,72,29.87,10.0,South,8.1,16.1,N/A,,Clear,170,2013-04-30 05:35:00
12:55 AM,60.8,50.0,68,29.87,10.0,South,10.4,16.1,N/A,,Clear,180,2013-04-30 05:55:00
1:15 AM,59.0,50.0,72,29.87,10.0,South,9.2,18.4,N/A,,Clear,170,2013-04-30 06:15:00
1:35 AM,60.8,50.0,68,29.87,10.0,South,11.5,19.6,N/A,,Clear,170,2013-04-30 06:35:00
1:55 AM,59.0,50.0,72,29.87,10.0,South,11.5,17.3,N/A,,Clear,170,2013-04-30 06:55:00
2:15 AM,59.0,50.0,72,29.86,10.0,South,10.4,21.9,N/A,,Clear,170,2013-04-30 07:15:00
2:35 AM,59.0,50.0,72,29.87,10.0,SSE,9.2,18.4,N/A,,Clear,160,2013-04-30 07:35:00
2:55 AM,59.0,50.0,72,29.86,10.0,South,9.2,16.1,N/A,,Clear,170,2013-04-30 07:55:00
3:15 AM,59.0,50.0,72,29.86,10.0,South,8.1,16.1,N/A,,Clear,170,2013-04-30 08:15:00
3:35 AM,59.0,50.0,72,29.86,10.0,South,8.1,17.3,N/A,,Clear,170,2013-04-30 08:35:00
3:55 AM,59.0,48.2,67,29.87,10.0,South,11.5,18.4,N/A,,Clear,180,2013-04-30 08:55:00
4:15 AM,59.0,50.0,72,29.87,10.0,South,11.5,19.6,N/A,,Scattered Clouds,190,2013-04-30 09:15:00
4:35 AM,59.0,50.0,72,29.87,10.0,South,10.4,18.4,N/A,,Scattered Clouds,180,2013-04-30 09:35:00
4:55 AM,59.0,50.0,72,29.86,10.0,South,11.5,21.9,N/A,,Scattered Clouds,180,2013-04-30 09:55:00
5:15 AM,59.0,50.0,72,29.85,10.0,South,13.8,20.7,N/A,,Scattered Clouds,180,2013-04-30 10:15:00
5:35 AM,59.0,50.0,72,29.85,10.0,South,10.4,21.9,N/A,,Clear,180,2013-04-30 10:35:00
5:55 AM,59.0,50.0,72,29.85,10.0,South,12.7,19.6,N/A,,Clear,180,2013-04-30 10:55:00
6:15 AM,59.0,50.0,72,29.87,10.0,South,11.5,19.6,N/A,,Clear,190,2013-04-30 11:15:00
6:35 AM,59.0,50.0,72,29.87,10.0,South,11.5,17.3,N/A,,Clear,180,2013-04-30 11:35:00
6:55 AM,59.0,50.0,72,29.88,10.0,South,12.7,21.9,N/A,,Clear,170,2013-04-30 11:55:00
7:15 AM,59.0,50.0,72,29.88,10.0,South,12.7,19.6,N/A,,Clear,180,2013-04-30 12:15:00
7:35 AM,60.8,50.0,68,29.89,10.0,South,12.7,20.7,N/A,,Clear,180,2013-04-30 12:35:00
7:55 AM,60.8,50.0,68,29.89,10.0,South,15.0,23.0,N/A,,Clear,180,2013-04-30 12:55:00
8:15 AM,62.6,51.8,68,29.89,10.0,South,13.8,23.0,N/A,,Clear,190,2013-04-30 13:15:00
8:35 AM,64.4,51.8,64,29.89,10.0,South,13.8,26.5,N/A,,Clear,180,2013-04-30 13:35:00
8:55 AM,64.4,51.8,64,29.89,10.0,South,12.7,19.6,N/A,,Scattered Clouds,190,2013-04-30 13:55:00
9:15 AM,66.2,51.8,60,29.89,10.0,SSW,16.1,20.7,N/A,,Mostly Cloudy,200,2013-04-30 14:15:00
9:35 AM,66.2,51.8,60,29.89,10.0,South,11.5,21.9,N/A,,Scattered Clouds,180,2013-04-30 14:35:00
9:55 AM,69.8,53.6,56,29.90,10.0,South,11.5,19.6,N/A,,Scattered Clouds,190,2013-04-30 14:55:00
10:15 AM,69.8,53.6,56,29.90,10.0,South,16.1,21.9,N/A,,Clear,180,2013-04-30 15:15:00
10:35 AM,69.8,53.6,56,29.90,10.0,South,12.7,19.6,N/A,,Clear,190,2013-04-30 15:35:00
10:55 AM,69.8,53.6,56,29.90,10.0,South,13.8,18.4,N/A,,Clear,170,2013-04-30 15:55:00
11:15 AM,71.6,53.6,53,29.90,10.0,South,11.5,18.4,N/A,,Clear,170,2013-04-30 16:15:00
11:35 AM,73.4,53.6,50,29.90,10.0,South,16.1,20.7,N/A,,Clear,170,2013-04-30 16:35:00
11:55 AM,75.2,53.6,47,29.89,10.0,South,15.0,23.0,N/A,,Clear,170,2013-04-30 16:55:00
12:15 PM,77.0,53.6,44,29.89,10.0,South,12.7,18.4,N/A,,Clear,180,2013-04-30 17:15:00
12:35 PM,77.0,53.6,44,29.89,10.0,SSW,11.5,21.9,N/A,,Clear,200,2013-04-30 17:35:00
12:55 PM,77.0,53.6,44,29.88,10.0,South,12.7,23.0,N/A,,Clear,190,2013-04-30 17:55:00
1:15 PM,78.8,53.6,42,29.88,10.0,South,13.8,20.7,N/A,,Clear,190,2013-04-30 18:15:00
1:55 PM,80.6,51.8,37,29.88,10.0,South,15.0,23.0,N/A,,Clear,170,2013-04-30 18:55:00
2:15 PM,80.6,53.6,39,29.88,10.0,South,13.8,20.7,N/A,,Clear,180,2013-04-30 19:15:00
2:35 PM,80.6,51.8,37,29.87,10.0,SSE,15.0,21.9,N/A,,Clear,150,2013-04-30 19:35:00
2:55 PM,82.4,51.8,35,29.87,10.0,SSE,11.5,24.2,N/A,,Clear,160,2013-04-30 19:55:00
3:35 PM,82.4,50.0,32,29.87,10.0,SSW,12.7,20.7,N/A,,Clear,200,2013-04-30 20:35:00
3:55 PM,82.4,50.0,32,29.87,10.0,SSE,11.5,18.4,N/A,,Clear,160,2013-04-30 20:55:00
4:15 PM,82.4,50.0,32,29.87,10.0,South,11.5,16.1,N/A,,Clear,170,2013-04-30 21:15:00
4:35 PM,82.4,50.0,32,29.87,10.0,South,13.8,19.6,N/A,,Clear,180,2013-04-30 21:35:00
4:55 PM,82.4,48.2,30,29.87,10.0,South,10.4,20.7,N/A,,Clear,180,2013-04-30 21:55:00
5:15 PM,82.4,48.2,30,29.88,10.0,SSW,11.5,-,N/A,,Clear,200,2013-04-30 22:15:00
5:35 PM,82.4,48.2,30,29.88,10.0,South,11.5,24.2,N/A,,Clear,180,2013-04-30 22:35:00
5:55 PM,80.6,46.4,30,29.89,10.0,South,9.2,17.3,N/A,,Clear,180,2013-04-30 22:55:00
6:35 PM,80.6,50.0,34,29.90,10.0,South,9.2,17.3,N/A,,Clear,180,2013-04-30 23:35:00
6:55 PM,78.8,50.0,36,29.91,10.0,South,10.4,-,N/A,,Clear,180,2013-04-30 23:55:00
7:15 PM,78.8,51.8,39,29.92,10.0,South,6.9,-,N/A,,Clear,170,2013-05-01 00:15:00
7:35 PM,77.0,53.6,44,29.92,10.0,South,8.1,-,N/A,,Clear,170,2013-05-01 00:35:00
7:55 PM,75.2,55.4,50,29.93,10.0,South,8.1,-,N/A,,Clear,170,2013-05-01 00:55:00
8:15 PM,73.4,55.4,53,29.94,10.0,South,6.9,-,N/A,,Clear,170,2013-05-01 01:15:00
8:35 PM,73.4,55.4,53,29.95,10.0,SSE,5.8,-,N/A,,Clear,160,2013-05-01 01:35:00
8:55 PM,73.4,55.4,53,29.95,10.0,South,4.6,-,N/A,,Clear,170,2013-05-01 01:55:00
9:15 PM,71.6,55.4,57,29.96,10.0,SSE,5.8,-,N/A,,Clear,160,2013-05-01 02:15:00
9:35 PM,71.6,55.4,57,29.97,10.0,South,6.9,-,N/A,,Clear,170,2013-05-01 02:35:00
9:55 PM,71.6,57.2,60,29.97,10.0,South,5.8,-,N/A,,Clear,170,2013-05-01 02:55:00
10:15 PM,69.8,59.0,68,29.97,10.0,South,5.8,-,N/A,,Clear,170,2013-05-01 03:15:00
10:35 PM,69.8,59.0,68,29.98,10.0,SSE,5.8,-,N/A,,Clear,160,2013-05-01 03:35:00
10:55 PM,69.8,59.0,68,29.98,10.0,South,6.9,-,N/A,,Clear,170,2013-05-01 03:55:00
11:15 PM,68.0,57.2,68,29.98,10.0,South,5.8,-,N/A,,Clear,180,2013-05-01 04:15:00
11:35 PM,68.0,57.2,68,29.99,10.0,South,6.9,-,N/A,,Clear,170,2013-05-01 04:35:00
11:55 PM,68.0,57.2,68,29.99,10.0,SSE,4.6,-,N/A,,Clear,160,2013-05-01 04:55:00